Starlink 3546

operational
NORAD ID: 51718 Int'l Des: 2022-016 Owner: SPXS Country: US Constellation: starlink
LEOCIRCULAR

关于 Starlink 3546

正在加载描述...

实时位置

正在加载3D地球...

即将过境

高度历史

Altitude vs Time

uPlot chart will show altitude changes over time

两行轨道根数

1 51718U 22016E 25304.42419352 .00001995 00000-0 14339-3 0 9994
2 51718 53.2181 189.4160 0001601 94.7001 265.4174 15.08841298205037
Epoch: Oct 31, 2025 • Age: 14 hours

当前状态

高度 549.6 km
速度 7.59 km/s
星下点 -29.82°S, 116.2°E
发射日期 Feb 21, 2022
运行时间 3.6 years
类型 internet

技术详情

分类 Payload
质量 297.00 kg
干质量 275.00 kg
总质量 297.00 kg
长度 0.20 m
直径 2.80 m
跨度 9.00 m
形状 Box + pan
制造商 SPXS
平台类型 Starlink
阶段状态 In Orbit
所有者/国家 SPXS/US

大型星座

Loading constellations...